Location: Moscow
(55.7500°N, 37.5830°E)
Time: 04:22:35
(UTC+03:00)

Vanguard 1 - Pass Details

Date: 16 August 2022
Orbit: 649 x 3832 km, 34.2° (Epoch: 30 September)

Event Time Altitude Azimuth Distance (km) Brightness Sun altitude
Exits shadow 01:59:41 11° 164° (SSE) 4,723 13.1 -18.1°
Maximum altitude 02:06:53 16° 133° (SE) 4,962 13.4 -17.8°
Drops below altitude 10° 02:16:25 10° 102° (ESE) 6,265 14.3 -17.2°
Sets 02:24:53 0° 87° (E) 7,743 15.1 -16.7°
